Weather History for CAPR - January, 2014

Change the Weather History Date:

Saturday, January 25, 2014

  Actual Average Record
Temperature  
Mean Temperature 14 °F -  
Max Temperature 36 °F - - ()
Min Temperature -8 °F - - ()
Degree Days  
Heating Degree Days 51    
Moisture  
Dew Point 16 °F    
Average Humidity 84    
Maximum Humidity 92    
Minimum Humidity 69    
Precipitation  
Precipitation 0.08 in - - ()
Sea Level Pressure  
Sea Level Pressure 29.90 in    
Wind  
Wind Speed 6 mph ()    
Max Wind Speed 18 mph    
Max Gust Speed 28 mph    
T = Trace of Precipitation, MM = Missing Value Source: Averaged Metar Reports

Daily Weather History Graph

Daily Weather History Graph

Search for Another Location

Airport or City:

Trip Planner

Search our weather history database for the weather conditions in past years. The results will help you decide how hot, cold, wet, or windy it might be!

Date:

Astronomy

Jan. 25, 2014 Rise Set
Actual Time 7:45 AM AST 5:14 PM AST
Civil Twilight 7:13 AM AST 5:46 PM AST
Nautical Twilight 6:37 AM AST 6:22 PM AST
Astronomical Twilight 6:02 AM AST 6:57 PM AST
Moon 2:11 AM AST (1/25) 12:12 PM AST (1/25)
Length of Visible Light 10h 32m
Length of Day
9h 28m
Waning Crescent, 34% of the Moon is Illuminated
Jan 25
Waning Crescent
Jan 30
New
Feb 6
First Quarter
Feb 14
Full
Feb 22
Last Quarter

Hourly Weather History & Observations

Time (AST) Temp. Windchill Dew Point Humidity Pressure Visibility Wind Dir Wind Speed Gust Speed Precip Events Conditions
12:00 AM -7.6 °F - -11.0 °F 85% 30.07 in - NW 2.3 mph - N/A   Unknown
1:00 AM -7.6 °F - -11.4 °F 84% 30.07 in - NW 1.2 mph - N/A   Unknown
2:00 AM -8 °F - -11 °F 78% 30.07 in - NNE 1.2 mph - -  
2:00 AM -7.8 °F - -11.2 °F 85% 30.07 in - North 1.2 mph - N/A   Unknown
3:00 AM -2.2 °F - -5.1 °F 88% 30.07 in - Calm Calm - N/A   Unknown
4:00 AM -3.8 °F - -7.2 °F 85% 30.06 in - Calm Calm - N/A   Unknown
5:00 AM -4.9 °F - -8.1 °F 86% 30.05 in - Calm Calm - N/A   Unknown
6:00 AM - - - N/A% 30.01 in - SE 11.5 mph - N/A   Unknown
7:00 AM - - - N/A% 30.01 in - SE 12.7 mph 18.4 mph N/A   Unknown
8:00 AM 17 °F - 13 °F 80% 30.02 in - SSE 10.4 mph - -  
8:00 AM 17.2 °F 6.0 °F 13.5 °F 85% 30.02 in - SE 9.2 mph - N/A   Unknown
9:00 AM 20.3 °F 9.0 °F 16.5 °F 85% 30.02 in - SSE 10.4 mph - N/A   Unknown
10:00 AM 21.7 °F 10.8 °F 18.0 °F 85% 30.02 in - SSE 10.4 mph - N/A   Unknown
11:00 AM 22.8 °F 12.2 °F 19.0 °F 85% 29.99 in - SSE 10.4 mph 19.6 mph N/A   Unknown
12:00 PM 27.5 °F 16.3 °F 22.5 °F 81% 29.94 in - SSE 13.8 mph 19.6 mph N/A   Unknown
1:00 PM 29.7 °F 21.3 °F 23.5 °F 78% 29.90 in - SSE 9.2 mph 19.6 mph N/A   Unknown
2:00 PM 31 °F - 25 °F 69% 29.86 in - SSE 8.1 mph - -  
2:00 PM 31.3 °F 24.7 °F 24.8 °F 77% 29.86 in - South 6.9 mph - N/A   Unknown
3:00 PM 31.8 °F 23.9 °F 25.9 °F 79% 29.84 in - SSE 9.2 mph - 0.01 in   Unknown
4:00 PM 32.9 °F 25.9 °F 27.1 °F 79% 29.82 in - SSE 8.1 mph - N/A   Unknown
5:00 PM 33.4 °F 22.7 °F 28.4 °F 82% 29.80 in - SE 17.3 mph 26.5 mph N/A   Unknown
6:00 PM 33.3 °F 24.1 °F 28.9 °F 84% 29.77 in - SE 12.7 mph 23.0 mph N/A   Unknown
7:00 PM 33.6 °F 23.7 °F 30.4 °F 88% 29.73 in - SE 15.0 mph 24.2 mph 0.01 in   Unknown
8:00 PM 34 °F - 31 °F 84% 29.69 in - SE 12.7 mph - -  
8:00 PM 34.0 °F 24.6 °F 30.9 °F 89% 29.69 in - ESE 13.8 mph 20.7 mph N/A   Unknown
9:00 PM 34.9 °F 24.2 °F 32.0 °F 89% 29.62 in - SE 18.4 mph 27.6 mph N/A   Unknown
10:00 PM 36.0 °F 25.6 °F 33.3 °F 90% 29.54 in - ESE 18.4 mph 27.6 mph N/A   Unknown
11:00 PM 35.6 °F 27.5 °F 33.4 °F 92% 29.48 in - ESE 11.5 mph 19.6 mph N/A   Unknown